Location: Baili�vre
(50.0696°N, 4.2409°E)
Time: 07:14:58
(UTC+00:00)

Geosat - Pass Details

Date: 08 August 2020
Orbit: 763 x 765 km, 108.0° (Epoch: 26 September)

Event Time Altitude Azimuth Distance (km) Brightness Sun altitude
Exits shadow 22:20:48 49° 164° (SSE) 984 4.1 -21.4°
Maximum altitude 22:22:11 79° 240° (WSW) 786 3.9 -21.4°
Drops below altitude 10° 22:27:14 10° 328° (NNW) 2,312 7.6 -21.7°
Sets 22:29:31 0° 330° (NNW) 3,243 8.7 -21.9°
